Regional Weather Roundup
Issued by NWS

Home | Current Version | Previous Version | Text Only | Print | Product List | Glossary On
Versions: 1 2 3 4 5 6 7 8 9 10 11 12 13 14 15 16 17 18 19 20 21 22 23 24 25 26 27 28 29 30 31 32 33 34 35 36 37 38 39 40 41 42 43 44 45 46 47 48 49 50
000
ASUS43 KTOP 270208
RWRKS

WEATHER ROUNDUP FOR KANSAS
NATIONAL WEATHER SERVICE GOODLAND KS
900 PM CDT TUE JUL 26 2016

NOTE:  "FAIR" INDICATES FEW OR NO CLOUDS BELOW 12,000 FEET WITH NO
SIGNIFICANT WEATHER AND/OR OBSTRUCTIONS TO VISIBILITY.

KSZ001>006-013>018-027>032-041>047-270300-
NORTHWEST KANSAS

CITY           SKY/WX    TMP DP  RH WIND       PRES   REMARKS
GOODLAND       CLOUDY    67  61  81 E14       30.03F THUNDER
HAYS           CLEAR     79  63  57 S6        30.00R
HILL CITY      CLEAR     80  67  64 SE5       30.00R
RUSSELL        CLEAR     81  67  62 E9        29.98R
$$

KSZ061>065-074>080-084>089-270300-
SOUTHWEST KANSAS

CITY           SKY/WX    TMP DP  RH WIND       PRES   REMARKS
DODGE CITY     CLEAR     80  67  64 E7        30.02R
ELKHART          N/A     83  65  54 E12         N/A
GARDEN CITY    CLEAR     79  66  64 E8        30.02R
GREAT BEND     CLEAR     81  66  61 SE7       29.99R
LIBERAL        CLEAR     84  63  48 E10       30.02R
PRATT          PTCLDY    80  65  61 E5        30.00R
$$

KSZ066>073-081>083-090>101-270300-
SOUTHEAST KANSAS

CITY           SKY/WX    TMP DP  RH WIND       PRES   REMARKS
CHANUTE        LGT RAIN  78  74  87 SW8       29.99R
COFFEYVILLE    PTCLDY    75  73  93 E3        29.96S
HUTCHINSON     CLEAR     81  70  69 E8        29.99R
NEWTON         CLEAR     79  73  82 E6        30.01R
PARSONS        CLOUDY    78  73  84 MISG      29.99R
WICHITA INTL   PTCLDY    84  71  65 E12       29.98R
WICHITA JABRA  CLEAR     80  72  76 E7        29.98R
WICHITA MCCONL CLEAR     83  72  69 SE7       29.98R
WINFIELD       MOCLDY    83  72  69 E9        29.98R
$$

KSZ007>012-019>026-033>040-048>060-102>105-270300-
NORTHEAST KANSAS

CITY           SKY/WX    TMP DP  RH WIND       PRES   REMARKS
CONCORDIA      CLEAR     75  69  81 SE7       30.00R
EMPORIA        CLEAR     78  70  76 E3        29.99S
LAWRENCE       CLEAR     77  67  71 E6        29.98F
MANHATTAN      PTCLDY    80  69  69 E3        29.98R
MARYSVILLE     PTCLDY    77  68  73 SE7       30.00S
OLATHE IND     CLEAR     79  70  74 SE6       30.01S
OLATHE EXE     CLEAR     78  68  71 E6        30.01S
SALINA         PTCLDY    85  70  60 SE8       29.98R
TOPEKA BILLARD CLEAR     79  68  69 NE5       29.98S
TOPEKA FORBES  CLEAR     82  70  66 SE3       29.99S
$$




USA.gov is the U.S. government's official web portal to all federal, state and local government web resources and services.